TimeEST,TemperatureF,Dew PointF,Humidity,Sea Level PressureIn,VisibilityMPH,Wind Direction,Wind SpeedMPH,Gust SpeedMPH,PrecipitationIn,Events,Conditions,WindDirDegrees,DateUTC
12:15 AM,29.3,14.2,53,30.17,10.0,WNW,11.5,20.7,N/A,,Overcast,300,2012-12-06 05:15:00
12:35 AM,29.1,14.9,55,30.17,10.0,WNW,11.5,24.2,N/A,Snow,Light Snow,300,2012-12-06 05:35:00
12:55 AM,28.9,14.9,56,30.18,10.0,NW,9.2,-,N/A,,Overcast,310,2012-12-06 05:55:00
1:15 AM,28.9,13.5,52,30.19,10.0,WNW,15.0,26.5,N/A,,Overcast,300,2012-12-06 06:15:00
1:35 AM,28.9,13.6,53,30.19,10.0,NW,9.2,-,N/A,,Overcast,320,2012-12-06 06:35:00
1:55 AM,28.6,14.4,55,30.20,10.0,NW,5.8,9.2,N/A,,Overcast,310,2012-12-06 06:55:00
2:15 AM,28.6,14.5,56,30.21,10.0,NW,11.5,20.7,N/A,,Overcast,320,2012-12-06 07:15:00
2:35 AM,28.8,14.4,55,30.22,10.0,NNW,8.1,-,N/A,,Overcast,330,2012-12-06 07:35:00
2:55 AM,28.2,15.1,58,30.23,10.0,NW,8.1,21.9,N/A,Snow,Light Snow,320,2012-12-06 07:55:00
3:15 AM,27.9,15.4,60,30.23,10.0,NNW,9.2,17.3,N/A,,Overcast,330,2012-12-06 08:15:00
3:35 AM,27.7,16.5,63,30.24,10.0,NNW,10.4,-,N/A,,Overcast,330,2012-12-06 08:35:00
3:55 AM,28.0,17.1,63,30.24,10.0,NW,6.9,-,N/A,Snow,Light Snow,320,2012-12-06 08:55:00
4:15 AM,27.5,16.9,64,30.25,10.0,NW,11.5,18.4,N/A,Snow,Light Snow,320,2012-12-06 09:15:00
4:35 AM,27.0,14.9,60,30.26,10.0,NW,8.1,-,N/A,,Scattered Clouds,320,2012-12-06 09:35:00
4:55 AM,26.6,14.0,59,30.27,10.0,NNW,8.1,-,N/A,,Scattered Clouds,330,2012-12-06 09:55:00
5:15 AM,26.6,13.6,58,30.27,10.0,NW,5.8,-,N/A,,Mostly Cloudy,320,2012-12-06 10:15:00
5:35 AM,26.6,12.7,56,30.28,10.0,NW,3.5,-,N/A,,Overcast,310,2012-12-06 10:35:00
5:55 AM,26.6,13.3,57,30.29,10.0,NNW,8.1,-,N/A,,Overcast,330,2012-12-06 10:55:00
6:15 AM,26.4,13.1,57,30.30,10.0,NW,9.2,-,N/A,,Overcast,310,2012-12-06 11:15:00
6:35 AM,26.2,13.8,59,30.32,10.0,North,6.9,-,N/A,,Overcast,350,2012-12-06 11:35:00
6:55 AM,26.2,13.8,59,30.32,10.0,WNW,5.8,-,N/A,,Overcast,300,2012-12-06 11:55:00
7:15 AM,26.2,13.5,59,30.32,10.0,NNW,6.9,-,N/A,,Overcast,330,2012-12-06 12:15:00
7:35 AM,26.2,14.0,60,30.33,10.0,NW,5.8,-,N/A,,Overcast,320,2012-12-06 12:35:00
7:55 AM,26.4,13.1,57,30.34,10.0,Calm,Calm,-,N/A,,Overcast,0,2012-12-06 12:55:00
8:15 AM,26.4,13.3,58,30.34,10.0,NW,5.8,-,N/A,,Overcast,310,2012-12-06 13:15:00
8:35 AM,26.4,12.9,57,30.34,10.0,NW,10.4,-,N/A,Snow,Light Snow,310,2012-12-06 13:35:00
8:55 AM,26.6,12.9,56,30.35,10.0,NW,5.8,-,N/A,,Mostly Cloudy,310,2012-12-06 13:55:00
9:15 AM,27.3,13.3,56,30.34,10.0,NNW,6.9,-,N/A,,Scattered Clouds,330,2012-12-06 14:15:00
9:35 AM,27.9,13.3,54,30.34,10.0,NW,8.1,-,N/A,,Scattered Clouds,320,2012-12-06 14:35:00
9:55 AM,27.9,13.1,54,30.35,10.0,NW,6.9,-,N/A,,Clear,320,2012-12-06 14:55:00
10:15 AM,28.2,13.1,53,30.34,10.0,NNW,6.9,-,N/A,,Clear,340,2012-12-06 15:15:00
10:35 AM,29.8,14.0,52,30.33,10.0,NNW,4.6,-,N/A,,Clear,340,2012-12-06 15:35:00
10:55 AM,29.5,13.8,52,30.33,10.0,North,3.5,-,N/A,,Clear,350,2012-12-06 15:55:00
11:15 AM,29.5,13.5,51,30.32,10.0,NNW,3.5,-,N/A,,Clear,330,2012-12-06 16:15:00
11:35 AM,29.7,13.6,51,30.31,10.0,NNW,3.5,-,N/A,,Clear,330,2012-12-06 16:35:00
11:55 AM,30.2,13.3,49,30.30,10.0,Calm,Calm,-,N/A,,Clear,0,2012-12-06 16:55:00
12:15 PM,30.9,13.8,49,30.30,10.0,NW,4.6,-,N/A,,Clear,310,2012-12-06 17:15:00
12:55 PM,31.5,14.9,50,30.29,10.0,Calm,Calm,-,N/A,,Clear,0,2012-12-06 17:55:00
1:15 PM,31.8,15.1,50,30.28,10.0,ENE,3.5,-,N/A,,Clear,70,2012-12-06 18:15:00
1:35 PM,32.0,15.4,51,30.28,10.0,ENE,4.6,-,N/A,,Clear,60,2012-12-06 18:35:00
1:55 PM,32.0,15.3,50,30.27,10.0,Calm,Calm,-,N/A,,Clear,0,2012-12-06 18:55:00
2:15 PM,31.8,14.9,50,30.27,10.0,NE,3.5,-,N/A,,Clear,50,2012-12-06 19:15:00
2:35 PM,32.0,14.7,49,30.27,10.0,Calm,Calm,-,N/A,,Clear,0,2012-12-06 19:35:00
2:55 PM,32.0,14.7,49,30.27,10.0,Calm,Calm,-,N/A,,Clear,0,2012-12-06 19:55:00
3:15 PM,32.0,14.9,49,30.27,10.0,Calm,Calm,-,N/A,,Clear,0,2012-12-06 20:15:00
3:35 PM,31.5,14.7,50,30.26,10.0,Calm,Calm,-,N/A,,Clear,0,2012-12-06 20:35:00
3:55 PM,30.9,14.7,51,30.25,10.0,Calm,Calm,-,N/A,,Clear,0,2012-12-06 20:55:00
4:15 PM,29.8,15.6,56,30.25,10.0,Calm,Calm,-,N/A,,Clear,0,2012-12-06 21:15:00
4:35 PM,27.5,18.1,68,30.25,10.0,Calm,Calm,-,N/A,,Clear,0,2012-12-06 21:35:00
4:55 PM,28.4,16.0,60,30.26,10.0,Calm,Calm,-,N/A,,Clear,0,2012-12-06 21:55:00
5:15 PM,25.5,17.1,70,30.25,10.0,Calm,Calm,-,N/A,,Clear,0,2012-12-06 22:15:00
5:35 PM,26.8,16.2,64,30.25,10.0,Calm,Calm,-,N/A,,Clear,0,2012-12-06 22:35:00
5:55 PM,27.3,16.9,65,30.25,10.0,Calm,Calm,-,N/A,,Clear,0,2012-12-06 22:55:00
6:15 PM,27.3,16.5,64,30.25,10.0,Calm,Calm,-,N/A,,Clear,0,2012-12-06 23:15:00
6:35 PM,25.7,17.1,70,30.24,10.0,Calm,Calm,-,N/A,,Clear,0,2012-12-06 23:35:00
6:55 PM,26.8,16.9,66,30.25,10.0,SW,3.5,-,N/A,,Clear,230,2012-12-06 23:55:00
7:15 PM,24.4,17.6,75,30.24,10.0,SSW,3.5,-,N/A,,Clear,200,2012-12-07 00:15:00
7:35 PM,24.6,17.2,74,30.24,10.0,Calm,Calm,-,N/A,,Clear,0,2012-12-07 00:35:00
7:55 PM,26.2,17.2,69,30.24,10.0,SSW,4.6,-,N/A,,Clear,200,2012-12-07 00:55:00
8:15 PM,25.3,17.2,71,30.24,10.0,South,3.5,-,N/A,,Clear,170,2012-12-07 01:15:00
8:35 PM,25.7,16.7,69,30.23,10.0,SW,4.6,-,N/A,,Clear,220,2012-12-07 01:35:00
8:55 PM,24.3,17.2,75,30.22,10.0,SSE,4.6,-,N/A,,Clear,160,2012-12-07 01:55:00
9:35 PM,26.2,16.7,67,30.21,10.0,South,5.8,-,N/A,,Clear,180,2012-12-07 02:35:00
9:55 PM,27.1,16.7,65,30.21,10.0,South,5.8,-,N/A,,Clear,180,2012-12-07 02:55:00
10:15 PM,28.0,16.7,62,30.20,10.0,South,6.9,-,N/A,,Clear,190,2012-12-07 03:15:00
10:35 PM,28.4,16.7,62,30.20,10.0,South,6.9,-,N/A,,Clear,170,2012-12-07 03:35:00
10:55 PM,28.8,16.7,61,30.19,10.0,South,6.9,-,N/A,,Clear,180,2012-12-07 03:55:00
11:15 PM,28.9,17.2,62,30.18,10.0,South,5.8,-,N/A,,Clear,190,2012-12-07 04:15:00
11:35 PM,29.1,16.7,60,30.18,10.0,South,6.9,-,N/A,,Clear,180,2012-12-07 04:35:00
11:55 PM,28.4,17.6,64,30.17,10.0,South,3.5,-,N/A,,Scattered Clouds,180,2012-12-07 04:55:00